Location: Les Jeannots
(43.2262°N, 5.5774°E)
Time: 01:13:09
(UTC+00:00)

NOSS 3-3 (A) - Pass Details

Date: 05 July 2020
Orbit: 825 x 1387 km, 63.4° (Epoch: 01 August)

Event Time Altitude Azimuth Distance (km) Brightness Sun altitude
Rises 20:24:57 0° 186° (S) 3,373 6.5 -10.0°
Reaches altitude 10° 20:27:30 10° 178° (S) 2,476 5.7 -10.3°
Maximum altitude 20:32:36 35° 114° (ESE) 1,426 4.4 -11.0°
Drops below altitude 10° 20:38:13 10° 51° (NE) 2,736 6.3 -11.7°
Sets 20:41:09 0° 43° (NE) 3,779 7.1 -12.0°
